Time,TemperatureF,DewpointF,PressureIn,WindDirection,WindDirectionDegrees,WindSpeedMPH,WindSpeedGustMPH,Humidity,HourlyPrecipIn,Conditions,Clouds,dailyrainin,SoftwareType,DateUTC
2013-01-23 00:03:00,14.3,9.8,30.60,WSW,238,0.0,0.0,82,0.00,CLR,,0.00,WeatherDisplay:10.37,2013-01-23 07:03:00,
2013-01-23 00:08:00,14.2,9.7,30.60,WSW,238,0.0,0.0,82,0.00,CLR,,0.00,WeatherDisplay:10.37,2013-01-23 07:08:00,
2013-01-23 00:13:00,14.1,9.6,30.60,WSW,238,0.0,0.0,82,0.00,CLR,,0.00,WeatherDisplay:10.37,2013-01-23 07:13:00,
2013-01-23 00:18:00,14.0,9.8,30.60,WSW,238,0.0,0.0,83,0.00,CLR,,0.00,WeatherDisplay:10.37,2013-01-23 07:18:00,
2013-01-23 00:23:00,13.9,9.7,30.59,WSW,238,0.0,0.0,83,0.00,CLR,,0.00,WeatherDisplay:10.37,2013-01-23 07:23:00,
2013-01-23 00:28:00,13.9,9.7,30.59,WSW,238,0.0,0.0,83,0.00,CLR,,0.00,WeatherDisplay:10.37,2013-01-23 07:28:00,
2013-01-23 00:33:00,13.8,9.6,30.59,WSW,238,0.0,0.0,83,0.00,CLR,,0.00,WeatherDisplay:10.37,2013-01-23 07:33:00,
2013-01-23 00:38:00,13.7,9.5,30.59,WSW,238,0.0,0.0,83,0.00,CLR,,0.00,WeatherDisplay:10.37,2013-01-23 07:38:00,
2013-01-23 00:43:00,13.5,9.3,30.59,WSW,238,0.0,0.0,83,0.00,CLR,,0.00,WeatherDisplay:10.37,2013-01-23 07:43:00,
2013-01-23 00:48:00,13.4,9.2,30.58,WSW,238,0.0,0.0,83,0.00,CLR,,0.00,WeatherDisplay:10.37,2013-01-23 07:48:00,
2013-01-23 00:53:00,13.3,9.1,30.58,WSW,238,0.0,0.0,83,0.00,CLR,,0.00,WeatherDisplay:10.37,2013-01-23 07:53:00,
2013-01-23 00:58:00,13.2,9.3,30.58,WSW,238,0.0,0.0,84,0.00,CLR,,0.00,WeatherDisplay:10.37,2013-01-23 07:58:00,
2013-01-23 01:03:00,13.3,9.6,30.58,WSW,238,0.0,0.0,85,0.00,CLR,,0.00,WeatherDisplay:10.37,2013-01-23 08:03:00,
2013-01-23 01:08:00,13.3,9.4,30.58,WSW,238,0.0,0.0,84,0.00,CLR,,0.00,WeatherDisplay:10.37,2013-01-23 08:08:00,
2013-01-23 01:13:00,13.2,9.3,30.58,WSW,238,0.0,0.0,84,0.00,CLR,,0.00,WeatherDisplay:10.37,2013-01-23 08:13:00,
2013-01-23 01:18:00,13.2,9.0,30.58,WSW,238,0.0,0.0,83,0.00,CLR,,0.00,WeatherDisplay:10.37,2013-01-23 08:18:00,
2013-01-23 01:23:00,13.0,8.8,30.58,WSW,238,0.0,0.0,83,0.00,CLR,,0.00,WeatherDisplay:10.37,2013-01-23 08:23:00,
2013-01-23 01:28:00,12.8,8.6,30.58,WSW,238,0.0,0.0,83,0.00,CLR,,0.00,WeatherDisplay:10.37,2013-01-23 08:28:00,
2013-01-23 01:33:00,12.7,8.8,30.58,WSW,238,0.0,0.0,84,0.00,CLR,,0.00,WeatherDisplay:10.37,2013-01-23 08:33:00,
2013-01-23 01:38:00,12.8,9.1,30.58,WSW,238,0.0,0.0,85,0.00,CLR,,0.00,WeatherDisplay:10.37,2013-01-23 08:38:00,
2013-01-23 01:43:00,12.8,8.9,30.59,WSW,238,0.0,0.0,84,0.00,CLR,,0.00,WeatherDisplay:10.37,2013-01-23 08:43:00,
2013-01-23 01:48:00,12.7,8.8,30.59,WSW,238,0.0,0.0,84,0.00,CLR,,0.00,WeatherDisplay:10.37,2013-01-23 08:48:00,
2013-01-23 01:53:00,12.7,8.8,30.59,WSW,238,0.0,0.0,84,0.00,CLR,,0.00,WeatherDisplay:10.37,2013-01-23 08:53:00,
2013-01-23 01:58:00,12.5,8.6,30.59,WSW,238,0.0,0.0,84,0.00,CLR,,0.00,WeatherDisplay:10.37,2013-01-23 08:58:00,
2013-01-23 02:03:00,12.4,8.5,30.59,WSW,238,0.0,0.0,84,0.00,CLR,,0.00,WeatherDisplay:10.37,2013-01-23 09:03:00,
2013-01-23 02:08:00,12.3,8.4,30.60,WSW,238,0.0,0.0,84,0.00,CLR,,0.00,WeatherDisplay:10.37,2013-01-23 09:08:00,
2013-01-23 02:13:00,12.1,8.5,30.60,WSW,238,0.0,0.0,85,0.00,CLR,,0.00,WeatherDisplay:10.37,2013-01-23 09:13:00,
2013-01-23 02:18:00,12.1,8.5,30.60,WSW,238,0.0,0.0,85,0.00,CLR,,0.00,WeatherDisplay:10.37,2013-01-23 09:18:00,
2013-01-23 02:23:00,12.0,8.4,30.60,WSW,238,0.0,0.0,85,0.00,CLR,,0.00,WeatherDisplay:10.37,2013-01-23 09:23:00,
2013-01-23 02:28:00,12.0,8.4,30.60,WSW,238,0.0,0.0,85,0.00,CLR,,0.00,WeatherDisplay:10.37,2013-01-23 09:28:00,
2013-01-23 02:33:00,11.9,8.3,30.60,WSW,238,0.0,0.0,85,0.00,CLR,,0.00,WeatherDisplay:10.37,2013-01-23 09:33:00,
2013-01-23 02:38:00,11.8,8.2,30.60,WSW,238,0.0,0.0,85,0.00,CLR,,0.00,WeatherDisplay:10.37,2013-01-23 09:38:00,
2013-01-23 02:43:00,11.7,8.1,30.60,WSW,254,0.0,0.0,85,0.00,CLR,,0.00,WeatherDisplay:10.37,2013-01-23 09:43:00,
2013-01-23 02:48:00,11.6,8.2,30.59,WSW,254,0.0,0.0,86,0.00,CLR,,0.00,WeatherDisplay:10.37,2013-01-23 09:48:00,
2013-01-23 02:53:00,11.6,8.0,30.59,ENE,58,2.0,2.0,85,0.00,CLR,,0.00,WeatherDisplay:10.37,2013-01-23 09:53:00,
2013-01-23 02:58:00,11.4,7.8,30.60,ENE,74,0.0,0.0,85,0.00,CLR,,0.00,WeatherDisplay:10.37,2013-01-23 09:58:00,
2013-01-23 03:03:00,11.2,7.6,30.59,ENE,74,0.0,0.0,85,0.00,CLR,,0.00,WeatherDisplay:10.37,2013-01-23 10:03:00,
2013-01-23 03:08:00,11.1,7.5,30.59,NNW,348,0.0,0.0,85,0.00,CLR,,0.00,WeatherDisplay:10.37,2013-01-23 10:08:00,
2013-01-23 03:13:00,11.0,7.4,30.59,NNW,348,0.0,0.0,85,0.00,CLR,,0.00,WeatherDisplay:10.37,2013-01-23 10:13:00,
2013-01-23 03:18:00,11.0,7.6,30.59,NW,309,1.1,0.0,86,0.00,CLR,,0.00,WeatherDisplay:10.37,2013-01-23 10:18:00,
2013-01-23 03:23:00,11.1,7.7,30.59,NW,309,0.0,0.0,86,0.00,CLR,,0.00,WeatherDisplay:10.37,2013-01-23 10:23:00,
2013-01-23 03:28:00,11.2,7.8,30.58,NW,309,0.0,0.0,86,0.00,CLR,,0.00,WeatherDisplay:10.37,2013-01-23 10:28:00,
2013-01-23 03:33:00,11.2,7.8,30.59,NW,309,0.0,0.0,86,0.00,CLR,,0.00,WeatherDisplay:10.37,2013-01-23 10:33:00,
2013-01-23 03:38:00,11.3,7.9,30.59,NW,305,0.0,0.0,86,0.00,CLR,,0.00,WeatherDisplay:10.37,2013-01-23 10:38:00,
2013-01-23 03:43:00,11.4,8.0,30.59,NW,305,0.0,0.0,86,0.00,CLR,,0.00,WeatherDisplay:10.37,2013-01-23 10:43:00,
2013-01-23 03:48:00,11.7,8.6,30.59,WNW,300,1.0,1.0,87,0.00,CLR,,0.00,WeatherDisplay:10.37,2013-01-23 10:48:00,
2013-01-23 03:53:00,11.8,8.4,30.58,WSW,241,2.3,2.3,86,0.00,CLR,,0.00,WeatherDisplay:10.37,2013-01-23 10:53:00,
2013-01-23 03:58:00,12.2,9.1,30.58,WSW,241,1.1,1.1,87,0.00,CLR,,0.00,WeatherDisplay:10.37,2013-01-23 10:58:00,
2013-01-23 04:03:00,12.5,9.1,30.58,WSW,239,2.3,2.3,86,0.00,CLR,,0.00,WeatherDisplay:10.37,2013-01-23 11:03:00,
2013-01-23 04:09:00,12.7,9.0,30.58,WSW,239,0.0,0.0,85,0.00,CLR,,0.00,WeatherDisplay:10.37,2013-01-23 11:09:00,
2013-01-23 04:14:00,12.8,9.1,30.58,WSW,239,0.0,0.0,85,0.00,CLR,,0.00,WeatherDisplay:10.37,2013-01-23 11:14:00,
2013-01-23 04:19:00,13.0,9.1,30.58,WSW,239,0.0,0.0,84,0.00,CLR,,0.00,WeatherDisplay:10.37,2013-01-23 11:19:00,
2013-01-23 04:24:00,13.0,9.1,30.58,WSW,239,0.0,0.0,84,0.00,CLR,,0.00,WeatherDisplay:10.37,2013-01-23 11:24:00,
2013-01-23 04:29:00,12.8,8.6,30.58,NNE,21,0.0,0.0,83,0.00,CLR,,0.00,WeatherDisplay:10.37,2013-01-23 11:29:00,
2013-01-23 04:34:00,12.6,8.4,30.57,NNE,20,0.0,0.0,83,0.00,CLR,,0.00,WeatherDisplay:10.37,2013-01-23 11:34:00,
2013-01-23 04:39:00,12.4,8.2,30.57,NNE,13,0.0,0.0,83,0.00,CLR,,0.00,WeatherDisplay:10.37,2013-01-23 11:39:00,
2013-01-23 04:44:00,12.2,8.0,30.57,NNE,13,0.0,0.0,83,0.00,CLR,,0.00,WeatherDisplay:10.37,2013-01-23 11:44:00,
2013-01-23 04:49:00,12.0,7.8,30.57,NNE,13,0.0,0.0,83,0.00,CLR,,0.00,WeatherDisplay:10.37,2013-01-23 11:49:00,
2013-01-23 04:54:00,11.8,7.6,30.57,NNE,13,0.0,0.0,83,0.00,CLR,,0.00,WeatherDisplay:10.37,2013-01-23 11:54:00,
2013-01-23 04:59:00,11.6,7.7,30.57,NNE,13,0.0,0.0,84,0.00,CLR,,0.00,WeatherDisplay:10.37,2013-01-23 11:59:00,
2013-01-23 05:04:00,11.5,7.6,30.57,NNE,13,0.0,0.0,84,0.00,CLR,,0.00,WeatherDisplay:10.37,2013-01-23 12:04:00,
2013-01-23 05:09:00,11.5,7.9,30.57,NNE,13,0.0,0.0,85,0.00,CLR,,0.00,WeatherDisplay:10.37,2013-01-23 12:09:00,
2013-01-23 05:14:00,11.6,8.0,30.57,NNE,13,0.0,0.0,85,0.00,CLR,,0.00,WeatherDisplay:10.37,2013-01-23 12:14:00,
2013-01-23 05:19:00,11.6,8.0,30.57,NNE,13,0.0,0.0,85,0.00,CLR,,0.00,WeatherDisplay:10.37,2013-01-23 12:19:00,
2013-01-23 05:24:00,11.6,8.2,30.57,NNE,13,0.0,0.0,86,0.00,CLR,,0.00,WeatherDisplay:10.37,2013-01-23 12:24:00,
2013-01-23 05:29:00,11.6,8.2,30.57,North,355,0.0,0.0,86,0.00,CLR,,0.00,WeatherDisplay:10.37,2013-01-23 12:29:00,
2013-01-23 05:34:00,11.6,8.0,30.57,North,355,0.0,0.0,85,0.00,CLR,,0.00,WeatherDisplay:10.37,2013-01-23 12:34:00,
2013-01-23 05:39:00,11.6,8.0,30.57,North,355,0.0,0.0,85,0.00,CLR,,0.00,WeatherDisplay:10.37,2013-01-23 12:39:00,
2013-01-23 05:44:00,11.6,8.2,30.57,North,355,0.0,0.0,86,0.00,CLR,,0.00,WeatherDisplay:10.37,2013-01-23 12:44:00,
2013-01-23 05:49:00,11.5,7.9,30.56,North,355,0.0,0.0,85,0.00,CLR,,0.00,WeatherDisplay:10.37,2013-01-23 12:49:00,
2013-01-23 05:54:00,11.4,7.8,30.56,NE,55,0.0,0.2,85,0.00,CLR,,0.00,WeatherDisplay:10.37,2013-01-23 12:54:00,
2013-01-23 05:59:00,11.4,7.8,30.55,NE,55,0.0,0.0,85,0.00,CLR,,0.00,WeatherDisplay:10.37,2013-01-23 12:59:00,
2013-01-23 06:04:00,11.3,7.7,30.56,NW,309,0.0,0.0,85,0.00,CLR,,0.00,WeatherDisplay:10.37,2013-01-23 13:04:00,
2013-01-23 06:09:00,11.3,7.9,30.55,NW,309,0.0,0.0,86,0.00,CLR,,0.00,WeatherDisplay:10.37,2013-01-23 13:09:00,
2013-01-23 06:14:00,11.2,7.8,30.56,NW,309,0.0,0.0,86,0.00,CLR,,0.00,WeatherDisplay:10.37,2013-01-23 13:14:00,
2013-01-23 06:19:00,11.2,7.8,30.56,NW,309,1.1,1.1,86,0.00,CLR,,0.00,WeatherDisplay:10.37,2013-01-23 13:19:00,
2013-01-23 06:24:00,11.2,8.1,30.56,NW,309,0.0,0.0,87,0.00,CLR,,0.00,WeatherDisplay:10.37,2013-01-23 13:24:00,
2013-01-23 06:29:00,11.2,8.1,30.56,NW,309,0.0,0.0,87,0.00,CLR,,0.00,WeatherDisplay:10.37,2013-01-23 13:29:00,
2013-01-23 06:34:00,11.2,8.1,30.55,WNW,300,0.0,0.0,87,0.00,CLR,,0.00,WeatherDisplay:10.37,2013-01-23 13:34:00,
2013-01-23 06:39:00,11.4,8.3,30.55,WNW,300,0.0,0.0,87,0.00,CLR,,0.00,WeatherDisplay:10.37,2013-01-23 13:39:00,
2013-01-23 06:44:00,11.6,8.5,30.55,WNW,300,0.0,0.0,87,0.00,CLR,,0.00,WeatherDisplay:10.37,2013-01-23 13:44:00,
2013-01-23 06:49:00,11.6,8.5,30.55,WNW,300,0.0,0.0,87,0.00,CLR,,0.00,WeatherDisplay:10.37,2013-01-23 13:49:00,
2013-01-23 06:54:00,11.7,8.6,30.55,NNW,346,0.0,0.0,87,0.00,CLR,,0.00,WeatherDisplay:10.37,2013-01-23 13:54:00,
2013-01-23 06:59:00,11.7,8.3,30.55,NNW,346,0.0,0.0,86,0.00,CLR,,0.00,WeatherDisplay:10.37,2013-01-23 13:59:00,
2013-01-23 07:04:00,11.6,8.2,30.55,NNW,346,0.0,0.0,86,0.00,CLR,,0.00,WeatherDisplay:10.37,2013-01-23 14:04:00,
2013-01-23 07:09:00,11.6,8.2,30.55,NNW,346,0.0,0.0,86,0.00,CLR,,0.00,WeatherDisplay:10.37,2013-01-23 14:09:00,
2013-01-23 07:14:00,11.6,8.5,30.55,NW,304,0.0,0.0,87,0.00,CLR,,0.00,WeatherDisplay:10.37,2013-01-23 14:14:00,
2013-01-23 07:19:00,11.6,8.5,30.55,NW,304,0.0,0.0,87,0.00,CLR,,0.00,WeatherDisplay:10.37,2013-01-23 14:19:00,
2013-01-23 07:24:00,11.7,8.6,30.55,NW,304,0.0,0.0,87,0.00,CLR,,0.00,WeatherDisplay:10.37,2013-01-23 14:24:00,
2013-01-23 07:29:00,11.8,8.7,30.54,NNE,24,1.1,1.1,87,0.00,CLR,,0.00,WeatherDisplay:10.37,2013-01-23 14:29:00,
2013-01-23 07:34:00,11.8,8.7,30.54,East,101,0.0,0.0,87,0.00,CLR,,0.00,WeatherDisplay:10.37,2013-01-23 14:34:00,
2013-01-23 07:39:00,11.8,8.4,30.55,East,101,2.3,2.3,86,0.00,CLR,,0.00,WeatherDisplay:10.37,2013-01-23 14:39:00,
2013-01-23 07:44:00,11.7,8.3,30.54,East,101,0.0,0.0,86,0.00,CLR,,0.00,WeatherDisplay:10.37,2013-01-23 14:44:00,
2013-01-23 07:49:00,11.7,8.3,30.54,East,101,0.0,0.0,86,0.00,CLR,,0.00,WeatherDisplay:10.37,2013-01-23 14:49:00,
2013-01-23 07:54:00,11.5,8.1,30.55,East,101,0.0,0.0,86,0.00,CLR,,0.00,WeatherDisplay:10.37,2013-01-23 14:54:00,
2013-01-23 07:59:00,11.5,8.1,30.55,East,101,0.0,0.0,86,0.00,CLR,,0.00,WeatherDisplay:10.37,2013-01-23 14:59:00,
2013-01-23 08:04:00,11.4,8.0,30.54,East,101,0.0,0.0,86,0.00,CLR,,0.00,WeatherDisplay:10.37,2013-01-23 15:04:00,
2013-01-23 08:09:00,11.4,8.0,30.54,SE,142,2.3,2.3,86,0.00,CLR,,0.00,WeatherDisplay:10.37,2013-01-23 15:09:00,
2013-01-23 08:14:00,11.5,8.1,30.55,NNE,12,1.1,1.1,86,0.00,CLR,,0.00,WeatherDisplay:10.37,2013-01-23 15:14:00,
2013-01-23 08:19:00,11.7,8.3,30.55,SE,126,1.1,0.0,86,0.00,CLR,,0.00,WeatherDisplay:10.37,2013-01-23 15:19:00,
2013-01-23 08:24:00,11.9,8.3,30.55,SSE,153,1.1,1.1,85,0.00,CLR,,0.00,WeatherDisplay:10.37,2013-01-23 15:24:00,
2013-01-23 08:29:00,12.2,8.8,30.55,SSE,153,0.0,0.0,86,0.00,CLR,,0.00,WeatherDisplay:10.37,2013-01-23 15:29:00,
2013-01-23 08:34:00,12.5,9.1,30.55,SSE,153,0.0,0.0,86,0.00,CLR,,0.00,WeatherDisplay:10.37,2013-01-23 15:34:00,
2013-01-23 08:39:00,12.9,9.5,30.55,SSE,153,0.0,0.0,86,0.00,CLR,,0.00,WeatherDisplay:10.37,2013-01-23 15:39:00,
2013-01-23 08:44:00,13.3,9.9,30.55,South,183,2.3,2.3,86,0.00,CLR,,0.00,WeatherDisplay:10.37,2013-01-23 15:44:00,
2013-01-23 08:49:00,13.7,10.3,30.55,South,183,0.0,0.0,86,0.00,CLR,,0.00,WeatherDisplay:10.37,2013-01-23 15:49:00,
2013-01-23 08:54:00,14.1,10.4,30.55,East,88,2.3,2.3,85,0.00,CLR,,0.00,WeatherDisplay:10.37,2013-01-23 15:54:00,
2013-01-23 08:59:00,14.6,10.6,30.56,East,93,2.3,2.3,84,0.00,CLR,,0.00,WeatherDisplay:10.37,2013-01-23 15:59:00,
2013-01-23 09:04:00,15.1,10.6,30.56,East,93,1.1,1.1,82,0.00,CLR,,0.00,WeatherDisplay:10.37,2013-01-23 16:04:00,
2013-01-23 09:09:00,15.4,10.6,30.56,East,93,0.0,0.0,81,0.00,CLR,,0.00,WeatherDisplay:10.37,2013-01-23 16:09:00,
2013-01-23 09:14:00,15.8,11.3,30.55,East,93,0.0,0.0,82,0.00,CLR,,0.00,WeatherDisplay:10.37,2013-01-23 16:14:00,
2013-01-23 09:19:00,16.3,11.8,30.55,East,92,2.3,2.3,82,0.00,CLR,,0.00,WeatherDisplay:10.37,2013-01-23 16:19:00,
2013-01-23 09:24:00,16.7,11.3,30.56,East,88,2.3,2.3,79,0.00,CLR,,0.00,WeatherDisplay:10.37,2013-01-23 16:24:00,
2013-01-23 09:29:00,17.2,11.8,30.55,East,88,0.0,0.0,79,0.00,CLR,,0.00,WeatherDisplay:10.37,2013-01-23 16:29:00,
2013-01-23 09:34:00,17.7,12.3,30.55,East,88,0.0,0.0,79,0.00,CLR,,0.00,WeatherDisplay:10.37,2013-01-23 16:34:00,
2013-01-23 09:39:00,18.3,12.9,30.55,NE,50,1.1,1.1,79,0.00,CLR,,0.00,WeatherDisplay:10.37,2013-01-23 16:39:00,
2013-01-23 09:44:00,18.9,13.2,30.54,NE,45,0.0,0.0,78,0.00,CLR,,0.00,WeatherDisplay:10.37,2013-01-23 16:44:00,
2013-01-23 09:49:00,19.5,13.5,30.54,NNW,339,0.0,0.0,77,0.00,CLR,,0.00,WeatherDisplay:10.37,2013-01-23 16:49:00,
2013-01-23 09:54:00,20.0,13.6,30.54,NNW,340,0.0,0.0,76,0.00,CLR,,0.00,WeatherDisplay:10.37,2013-01-23 16:54:00,
2013-01-23 09:59:00,20.6,13.6,30.54,NNW,339,0.0,0.0,74,0.00,CLR,,0.00,WeatherDisplay:10.37,2013-01-23 16:59:00,
2013-01-23 10:04:00,21.2,13.6,30.54,NNW,339,1.1,1.1,72,0.00,CLR,,0.00,WeatherDisplay:10.37,2013-01-23 17:04:00,
2013-01-23 10:09:00,21.8,14.2,30.53,NW,306,1.1,0.0,72,0.00,CLR,,0.00,WeatherDisplay:10.37,2013-01-23 17:09:00,
2013-01-23 10:14:00,22.4,14.7,30.54,West,281,1.1,1.1,72,0.00,CLR,,0.00,WeatherDisplay:10.37,2013-01-23 17:14:00,
2013-01-23 10:19:00,23.1,15.1,30.53,West,281,1.0,1.0,71,0.00,CLR,,0.00,WeatherDisplay:10.37,2013-01-23 17:19:00,
2013-01-23 10:24:00,24.0,16.0,30.53,West,281,0.0,0.0,71,0.00,CLR,,0.00,WeatherDisplay:10.37,2013-01-23 17:24:00,
2013-01-23 10:29:00,24.7,16.3,30.53,West,281,0.0,0.0,70,0.00,CLR,,0.00,WeatherDisplay:10.37,2013-01-23 17:29:00,
2013-01-23 10:34:00,25.3,16.9,30.53,West,281,0.0,0.0,70,0.00,CLR,,0.00,WeatherDisplay:10.37,2013-01-23 17:34:00,
2013-01-23 10:39:00,26.0,16.5,30.53,West,281,0.0,0.0,67,0.00,CLR,,0.00,WeatherDisplay:10.37,2013-01-23 17:39:00,
2013-01-23 10:44:00,26.5,16.7,30.53,West,281,0.0,0.0,66,0.00,CLR,,0.00,WeatherDisplay:10.37,2013-01-23 17:44:00,
2013-01-23 10:49:00,27.0,17.5,30.53,West,281,0.0,0.0,67,0.00,CLR,,0.00,WeatherDisplay:10.37,2013-01-23 17:49:00,
2013-01-23 10:54:00,27.4,17.2,30.53,West,281,0.0,0.0,65,0.00,CLR,,0.00,WeatherDisplay:10.37,2013-01-23 17:54:00,
2013-01-23 10:59:00,27.8,17.2,30.54,West,281,0.0,0.0,64,0.00,CLR,,0.00,WeatherDisplay:10.37,2013-01-23 17:59:00,
2013-01-23 11:04:00,28.2,17.9,30.54,West,281,0.0,0.0,65,0.00,CLR,,0.00,WeatherDisplay:10.37,2013-01-23 18:04:00,
2013-01-23 11:09:00,28.6,18.3,30.53,West,281,0.0,0.0,65,0.00,CLR,,0.00,WeatherDisplay:10.37,2013-01-23 18:09:00,
2013-01-23 11:14:00,29.2,18.9,30.53,West,281,0.0,0.0,65,0.00,CLR,,0.00,WeatherDisplay:10.37,2013-01-23 18:14:00,
2013-01-23 11:19:00,29.8,19.8,30.53,West,281,0.0,0.0,66,0.00,CLR,,0.00,WeatherDisplay:10.37,2013-01-23 18:19:00,
2013-01-23 11:24:00,30.4,19.7,30.52,ENE,59,2.3,2.3,64,0.00,CLR,,0.00,WeatherDisplay:10.37,2013-01-23 18:24:00,
2013-01-23 11:29:00,30.8,17.7,30.52,ENE,59,1.1,1.1,58,0.00,CLR,,0.00,WeatherDisplay:10.37,2013-01-23 18:29:00,
2013-01-23 11:34:00,31.2,17.7,30.51,ENE,59,0.0,0.0,57,0.00,CLR,,0.00,WeatherDisplay:10.37,2013-01-23 18:34:00,
2013-01-23 11:39:00,31.6,18.5,30.51,North,355,1.1,1.1,58,0.00,CLR,,0.00,WeatherDisplay:10.37,2013-01-23 18:39:00,
2013-01-23 11:44:00,32.0,18.1,30.51,North,355,1.1,0.0,56,0.00,CLR,,0.00,WeatherDisplay:10.37,2013-01-23 18:44:00,
2013-01-23 11:49:00,32.3,18.3,30.51,North,5,1.1,1.1,56,0.00,CLR,,0.00,WeatherDisplay:10.37,2013-01-23 18:49:00,
2013-01-23 11:54:00,32.7,18.7,30.51,North,5,0.0,0.0,56,0.00,CLR,,0.00,WeatherDisplay:10.37,2013-01-23 18:54:00,
2013-01-23 11:59:00,33.2,18.8,30.51,North,5,0.0,0.0,55,0.00,CLR,,0.00,WeatherDisplay:10.37,2013-01-23 18:59:00,
2013-01-23 12:04:00,33.6,19.6,30.50,North,5,0.0,0.0,56,0.00,CLR,,0.00,WeatherDisplay:10.37,2013-01-23 19:04:00,
2013-01-23 12:09:00,34.2,19.3,30.50,North,5,0.0,0.0,54,0.00,CLR,,0.00,WeatherDisplay:10.37,2013-01-23 19:09:00,
2013-01-23 12:14:00,34.7,19.7,30.50,North,5,0.0,0.0,54,0.00,CLR,,0.00,WeatherDisplay:10.37,2013-01-23 19:14:00,
2013-01-23 12:19:00,35.1,21.4,30.50,North,5,0.0,0.0,57,0.00,CLR,,0.00,WeatherDisplay:10.37,2013-01-23 19:19:00,
2013-01-23 12:24:00,35.0,19.1,30.50,ENE,78,1.1,0.0,52,0.00,CLR,,0.00,WeatherDisplay:10.37,2013-01-23 19:24:00,
2013-01-23 12:29:00,34.7,19.3,30.50,ENE,69,2.3,2.3,53,0.00,CLR,,0.00,WeatherDisplay:10.37,2013-01-23 19:29:00,
2013-01-23 12:34:00,34.4,18.6,30.49,NW,325,0.0,0.0,52,0.00,CLR,,0.00,WeatherDisplay:10.37,2013-01-23 19:34:00,
2013-01-23 12:39:00,34.4,18.6,30.49,NW,325,0.0,0.0,52,0.00,CLR,,0.00,WeatherDisplay:10.37,2013-01-23 19:39:00,
2013-01-23 12:44:00,34.9,19.0,30.49,ENE,63,2.3,0.0,52,0.00,CLR,,0.00,WeatherDisplay:10.37,2013-01-23 19:44:00,
2013-01-23 12:49:00,35.4,19.0,30.49,ENE,70,2.3,2.3,51,0.00,CLR,,0.00,WeatherDisplay:10.37,2013-01-23 19:49:00,
2013-01-23 12:54:00,35.7,19.3,30.48,ENE,72,0.0,0.0,51,0.00,CLR,,0.00,WeatherDisplay:10.37,2013-01-23 19:54:00,
2013-01-23 12:59:00,36.2,20.7,30.49,NNW,341,1.1,0.0,53,0.00,CLR,,0.00,WeatherDisplay:10.37,2013-01-23 19:59:00,
2013-01-23 13:04:00,36.6,20.2,30.49,NNW,341,1.1,1.1,51,0.01,RA,,0.01,WeatherDisplay:10.37,2013-01-23 20:04:00,
2013-01-23 13:09:00,36.9,20.4,30.48,NNW,341,0.0,0.0,51,0.01,RA,,0.01,WeatherDisplay:10.37,2013-01-23 20:09:00,
2013-01-23 13:14:00,37.7,17.7,30.48,ESE,119,2.3,0.0,44,0.01,CLR,,0.01,WeatherDisplay:10.37,2013-01-23 20:14:00,
2013-01-23 13:19:00,38.9,17.7,30.48,ESE,119,1.0,1.0,42,0.01,CLR,,0.01,WeatherDisplay:10.37,2013-01-23 20:19:00,
2013-01-23 13:24:00,39.8,17.4,30.48,SSW,204,1.1,1.1,40,0.01,CLR,,0.01,WeatherDisplay:10.37,2013-01-23 20:24:00,
2013-01-23 13:29:00,40.5,21.3,30.47,NNE,30,3.5,3.5,46,0.01,CLR,,0.01,WeatherDisplay:10.37,2013-01-23 20:29:00,
2013-01-23 13:34:00,40.3,19.5,30.46,NE,43,2.3,2.3,43,0.01,CLR,,0.01,WeatherDisplay:10.37,2013-01-23 20:34:00,
2013-01-23 13:39:00,39.9,19.2,30.46,NNW,346,2.3,2.3,43,0.02,RA,,0.02,WeatherDisplay:10.37,2013-01-23 20:39:00,
2013-01-23 13:44:00,40.0,19.3,30.46,NNW,346,2.3,2.3,43,0.02,RA,,0.02,WeatherDisplay:10.37,2013-01-23 20:44:00,
2013-01-23 13:49:00,40.4,19.1,30.46,NW,323,1.1,1.1,42,0.02,CLR,,0.02,WeatherDisplay:10.37,2013-01-23 20:49:00,
2013-01-23 13:54:00,40.7,21.0,30.45,NNE,27,2.3,2.3,45,0.02,CLR,,0.02,WeatherDisplay:10.37,2013-01-23 20:54:00,
2013-01-23 13:59:00,40.7,20.5,30.45,NNE,22,3.0,3.0,44,0.02,CLR,,0.02,WeatherDisplay:10.37,2013-01-23 20:59:00,
2013-01-23 14:04:00,40.8,19.5,30.45,NE,38,1.1,1.1,42,0.01,CLR,,0.02,WeatherDisplay:10.37,2013-01-23 21:04:00,
2013-01-23 14:09:00,40.8,17.7,30.45,NE,38,0.0,0.0,39,0.02,RA,,0.03,WeatherDisplay:10.37,2013-01-23 21:09:00,
2013-01-23 14:14:00,40.9,17.8,30.45,ENE,57,1.0,1.0,39,0.02,RA,,0.03,WeatherDisplay:10.37,2013-01-23 21:14:00,
2013-01-23 14:19:00,40.8,18.9,30.45,East,91,1.1,0.0,41,0.02,CLR,,0.03,WeatherDisplay:10.37,2013-01-23 21:19:00,
2013-01-23 14:24:00,40.7,18.2,30.45,East,91,0.0,0.0,40,0.02,CLR,,0.03,WeatherDisplay:10.37,2013-01-23 21:24:00,
2013-01-23 14:29:00,40.9,19.5,30.46,SSW,194,3.5,3.5,42,0.02,CLR,,0.03,WeatherDisplay:10.37,2013-01-23 21:29:00,
2013-01-23 14:34:00,41.1,18.0,30.45,South,170,0.0,0.1,39,0.02,CLR,,0.03,WeatherDisplay:10.37,2013-01-23 21:34:00,
2013-01-23 14:39:00,41.4,17.7,30.45,South,169,1.1,1.1,38,0.02,RA,,0.04,WeatherDisplay:10.37,2013-01-23 21:39:00,
2013-01-23 14:44:00,41.8,18.6,30.45,South,170,1.1,1.1,39,0.02,RA,,0.04,WeatherDisplay:10.37,2013-01-23 21:44:00,
2013-01-23 14:49:00,42.4,16.6,30.45,South,183,3.5,3.5,35,0.02,CLR,,0.04,WeatherDisplay:10.37,2013-01-23 21:49:00,
2013-01-23 14:54:00,43.1,17.9,30.45,SSW,207,1.1,1.1,36,0.02,CLR,,0.04,WeatherDisplay:10.37,2013-01-23 21:54:00,
2013-01-23 14:59:00,43.5,17.6,30.45,East,95,3.5,3.5,35,0.02,CLR,,0.04,WeatherDisplay:10.37,2013-01-23 21:59:00,
2013-01-23 15:04:00,43.6,18.4,30.44,SSE,163,2.3,2.3,36,0.02,CLR,,0.04,WeatherDisplay:10.37,2013-01-23 22:04:00,
2013-01-23 15:09:00,43.6,18.4,30.44,SSW,211,2.3,2.3,36,0.02,RA,,0.05,WeatherDisplay:10.37,2013-01-23 22:09:00,
2013-01-23 15:14:00,43.5,17.6,30.44,SSW,211,2.3,2.3,35,0.02,RA,,0.05,WeatherDisplay:10.37,2013-01-23 22:14:00,
2013-01-23 15:19:00,43.6,19.0,30.44,SW,223,1.1,0.0,37,0.02,,,0.05,WeatherDisplay:10.37,2013-01-23 22:19:00,
2013-01-23 15:24:00,43.6,17.7,30.44,West,266,1.1,1.1,35,0.02,CLR,,0.05,WeatherDisplay:10.37,2013-01-23 22:24:00,
2013-01-23 15:29:00,43.7,19.7,30.43,West,271,0.0,0.0,38,0.02,CLR,,0.05,WeatherDisplay:10.37,2013-01-23 22:29:00,
2013-01-23 15:34:00,43.9,19.3,30.44,WNW,298,3.5,3.5,37,0.02,CLR,,0.05,WeatherDisplay:10.37,2013-01-23 22:34:00,
2013-01-23 15:39:00,44.2,18.9,30.44,NW,311,3.5,3.5,36,0.01,CLR,,0.05,WeatherDisplay:10.37,2013-01-23 22:39:00,
2013-01-23 15:44:00,44.5,19.8,30.44,NW,311,1.0,1.0,37,0.02,RA,,0.06,WeatherDisplay:10.37,2013-01-23 22:44:00,
2013-01-23 15:49:00,44.6,19.9,30.44,NW,311,0.0,0.0,37,0.02,RA,,0.06,WeatherDisplay:10.37,2013-01-23 22:49:00,
2013-01-23 15:54:00,44.3,19.0,30.45,NW,309,3.5,3.5,36,0.02,CLR,,0.06,WeatherDisplay:10.37,2013-01-23 22:54:00,
2013-01-23 15:59:00,44.0,20.0,30.45,NW,309,0.0,0.0,38,0.02,CLR,,0.06,WeatherDisplay:10.37,2013-01-23 22:59:00,
2013-01-23 16:04:00,43.5,19.5,30.44,NW,309,0.0,0.0,38,0.02,CLR,,0.06,WeatherDisplay:10.37,2013-01-23 23:04:00,
2013-01-23 16:09:00,43.0,21.4,30.45,NW,309,0.0,0.0,42,0.01,CLR,,0.06,WeatherDisplay:10.37,2013-01-23 23:09:00,
2013-01-23 16:14:00,42.6,21.1,30.45,NW,309,0.0,0.0,42,0.02,RA,,0.07,WeatherDisplay:10.37,2013-01-23 23:14:00,
2013-01-23 16:19:00,42.3,21.9,30.44,NW,309,0.0,0.0,44,0.02,RA,,0.07,WeatherDisplay:10.37,2013-01-23 23:19:00,
2013-01-23 16:24:00,42.0,22.2,30.44,West,267,0.0,0.0,45,0.02,CLR,,0.07,WeatherDisplay:10.37,2013-01-23 23:24:00,
2013-01-23 16:29:00,41.6,23.3,30.44,West,267,1.1,1.1,48,0.02,CLR,,0.07,WeatherDisplay:10.37,2013-01-23 23:29:00,
2013-01-23 16:34:00,41.4,21.6,30.44,WSW,248,1.1,1.1,45,0.02,CLR,,0.07,WeatherDisplay:10.37,2013-01-23 23:34:00,
2013-01-23 16:39:00,41.3,23.1,30.45,WSW,243,2.3,2.3,48,0.02,CLR,,0.07,WeatherDisplay:10.37,2013-01-23 23:39:00,
2013-01-23 16:44:00,41.0,23.8,30.45,WSW,240,0.0,0.0,50,0.01,CLR,,0.07,WeatherDisplay:10.37,2013-01-23 23:44:00,
2013-01-23 16:49:00,40.8,23.6,30.45,WSW,240,0.0,0.0,50,0.01,CLR,,0.07,WeatherDisplay:10.37,2013-01-23 23:49:00,
2013-01-23 16:54:00,40.5,23.3,30.44,WSW,240,0.0,0.0,50,0.01,CLR,,0.07,WeatherDisplay:10.37,2013-01-23 23:54:00,
2013-01-23 16:59:00,40.1,24.3,30.45,WSW,240,1.1,0.0,53,0.02,RA,,0.08,WeatherDisplay:10.37,2013-01-23 23:59:00,
2013-01-23 17:04:00,39.7,24.4,30.45,WSW,240,0.0,0.0,54,0.02,RA,,0.08,WeatherDisplay:10.37,2013-01-24 00:04:00,
2013-01-23 17:09:00,39.3,24.5,30.44,WSW,240,0.0,0.0,55,0.02,CLR,,0.08,WeatherDisplay:10.37,2013-01-24 00:09:00,
2013-01-23 17:14:00,38.8,24.9,30.44,WSW,240,0.0,0.0,57,0.01,CLR,,0.08,WeatherDisplay:10.37,2013-01-24 00:14:00,
2013-01-23 17:19:00,38.3,24.8,30.44,WSW,240,0.0,0.0,58,0.02,RA,,0.09,WeatherDisplay:10.37,2013-01-24 00:19:00,
2013-01-23 17:24:00,37.8,24.7,30.43,WSW,240,0.0,0.0,59,0.02,RA,,0.09,WeatherDisplay:10.37,2013-01-24 00:24:00,
2013-01-23 17:29:00,37.3,25.5,30.43,WSW,240,0.0,0.0,62,0.02,CLR,,0.09,WeatherDisplay:10.37,2013-01-24 00:29:00,
2013-01-23 17:34:00,36.8,23.8,30.43,WSW,240,0.0,0.0,59,0.02,CLR,,0.09,WeatherDisplay:10.37,2013-01-24 00:34:00,
2013-01-23 17:39:00,36.4,24.2,30.43,WSW,240,0.0,0.0,61,0.02,CLR,,0.09,WeatherDisplay:10.37,2013-01-24 00:39:00,
2013-01-23 17:44:00,35.9,23.4,30.43,WSW,240,0.0,0.0,60,0.02,CLR,,0.09,WeatherDisplay:10.37,2013-01-24 00:44:00,
2013-01-23 17:49:00,35.5,24.1,30.43,SW,230,1.1,1.1,63,0.02,CLR,,0.09,WeatherDisplay:10.37,2013-01-24 00:49:00,
2013-01-23 17:54:00,35.1,23.0,30.43,SW,230,1.1,1.1,61,0.02,CLR,,0.09,WeatherDisplay:10.37,2013-01-24 00:54:00,
2013-01-23 17:59:00,34.9,23.2,30.42,SW,230,0.0,0.0,62,0.01,CLR,,0.09,WeatherDisplay:10.37,2013-01-24 00:59:00,
2013-01-23 18:04:00,34.6,22.1,30.42,SW,230,0.0,0.0,60,0.01,CLR,,0.09,WeatherDisplay:10.37,2013-01-24 01:04:00,
2013-01-23 18:09:00,34.6,22.9,30.43,NNE,32,3.0,3.0,62,0.01,CLR,,0.09,WeatherDisplay:10.37,2013-01-24 01:09:00,
2013-01-23 18:14:00,34.4,23.8,30.43,NNE,31,0.0,0.0,65,0.01,CLR,,0.09,WeatherDisplay:10.37,2013-01-24 01:14:00,
2013-01-23 18:19:00,34.2,23.7,30.42,NNE,31,0.0,0.0,65,0.00,CLR,,0.09,WeatherDisplay:10.37,2013-01-24 01:19:00,
2013-01-23 18:24:00,33.9,22.6,30.43,NNE,26,1.1,0.0,63,0.00,CLR,,0.09,WeatherDisplay:10.37,2013-01-24 01:24:00,
2013-01-23 18:29:00,33.7,23.2,30.43,NNE,17,1.1,1.1,65,0.00,CLR,,0.09,WeatherDisplay:10.37,2013-01-24 01:29:00,
2013-01-23 18:34:00,33.4,22.9,30.43,NNE,15,1.1,0.0,65,0.00,CLR,,0.09,WeatherDisplay:10.37,2013-01-24 01:34:00,
2013-01-23 18:39:00,33.2,22.7,30.43,NNE,12,0.0,0.0,65,0.00,CLR,,0.09,WeatherDisplay:10.37,2013-01-24 01:39:00,
2013-01-23 18:44:00,32.9,21.7,30.43,North,356,0.0,2.0,63,0.00,CLR,CLR,0.09,WeatherDisplay:10.37,2013-01-24 01:44:00,
2013-01-23 18:49:00,32.7,21.5,30.43,WNW,298,1.1,1.1,63,0.00,CLR,,0.09,WeatherDisplay:10.37,2013-01-24 01:49:00,
2013-01-23 18:54:00,32.7,21.5,30.43,WNW,298,0.0,0.0,63,0.00,CLR,,0.09,WeatherDisplay:10.37,2013-01-24 01:54:00,
2013-01-23 18:59:00,32.6,21.4,30.43,WNW,292,1.1,1.1,63,0.00,CLR,,0.09,WeatherDisplay:10.37,2013-01-24 01:59:00,
2013-01-23 19:04:00,32.4,21.6,30.43,WNW,292,0.0,0.0,64,0.00,CLR,,0.09,WeatherDisplay:10.37,2013-01-24 02:04:00,
2013-01-23 19:09:00,32.2,21.4,30.43,WNW,292,0.0,0.0,64,0.00,CLR,,0.09,WeatherDisplay:10.37,2013-01-24 02:09:00,
2013-01-23 19:14:00,31.8,21.4,30.43,WNW,289,0.0,0.0,65,0.00,CLR,,0.09,WeatherDisplay:10.37,2013-01-24 02:14:00,
2013-01-23 19:19:00,31.5,21.1,30.43,SSW,200,3.5,3.5,65,0.00,CLR,,0.09,WeatherDisplay:10.37,2013-01-24 02:19:00,
2013-01-23 19:24:00,31.1,21.1,30.43,SSW,200,0.0,0.0,66,0.00,CLR,,0.09,WeatherDisplay:10.37,2013-01-24 02:24:00,
2013-01-23 19:29:00,30.8,21.1,30.43,SSW,200,2.3,2.3,67,0.00,CLR,,0.09,WeatherDisplay:10.37,2013-01-24 02:29:00,
2013-01-23 19:34:00,30.5,20.5,30.42,SSW,200,2.3,2.3,66,0.00,CLR,,0.09,WeatherDisplay:10.37,2013-01-24 02:34:00,
2013-01-23 19:39:00,30.3,20.6,30.42,SSW,200,1.1,1.1,67,0.00,CLR,,0.09,WeatherDisplay:10.37,2013-01-24 02:39:00,
2013-01-23 19:44:00,30.2,20.9,30.42,SSW,200,0.0,0.0,68,0.00,CLR,,0.09,WeatherDisplay:10.37,2013-01-24 02:44:00,
2013-01-23 19:49:00,30.0,20.7,30.42,SSW,200,0.0,0.0,68,0.00,CLR,,0.09,WeatherDisplay:10.37,2013-01-24 02:49:00,
2013-01-23 19:54:00,29.9,21.0,30.42,SW,215,1.1,1.1,69,0.00,CLR,,0.09,WeatherDisplay:10.37,2013-01-24 02:54:00,
2013-01-23 19:59:00,29.7,20.8,30.42,ESE,121,0.0,0.0,69,0.00,CLR,,0.09,WeatherDisplay:10.37,2013-01-24 02:59:00,
2013-01-23 20:04:00,29.4,20.8,30.43,ESE,121,0.0,0.0,70,0.00,CLR,,0.09,WeatherDisplay:10.37,2013-01-24 03:04:00,
2013-01-23 20:09:00,29.2,20.6,30.43,ESE,121,0.0,0.0,70,0.00,CLR,,0.09,WeatherDisplay:10.37,2013-01-24 03:09:00,
2013-01-23 20:14:00,28.9,20.3,30.43,ESE,121,0.0,0.0,70,0.00,CLR,,0.09,WeatherDisplay:10.37,2013-01-24 03:14:00,
2013-01-23 20:19:00,28.8,20.2,30.43,ESE,121,1.1,1.1,70,0.00,CLR,,0.09,WeatherDisplay:10.37,2013-01-24 03:19:00,
2013-01-23 20:24:00,28.6,20.1,30.44,SSE,164,0.0,0.0,70,0.00,CLR,,0.09,WeatherDisplay:10.37,2013-01-24 03:24:00,
2013-01-23 20:29:00,28.5,20.3,30.44,SSE,164,0.0,0.0,71,0.00,CLR,,0.09,WeatherDisplay:10.37,2013-01-24 03:29:00,
2013-01-23 20:34:00,28.3,20.4,30.44,SSE,164,0.0,0.0,72,0.00,CLR,,0.09,WeatherDisplay:10.37,2013-01-24 03:34:00,
2013-01-23 20:39:00,28.2,20.0,30.43,South,179,2.3,2.3,71,0.00,CLR,,0.09,WeatherDisplay:10.37,2013-01-24 03:39:00,
2013-01-23 20:44:00,28.1,20.2,30.44,South,179,0.0,0.0,72,0.00,CLR,,0.09,WeatherDisplay:10.37,2013-01-24 03:44:00,
2013-01-23 20:49:00,28.0,20.1,30.43,South,179,0.0,0.0,72,0.00,CLR,,0.09,WeatherDisplay:10.37,2013-01-24 03:49:00,
2013-01-23 20:54:00,28.0,20.1,30.43,South,179,0.0,0.0,72,0.00,CLR,,0.09,WeatherDisplay:10.37,2013-01-24 03:54:00,
2013-01-23 20:59:00,28.1,20.2,30.43,South,179,0.0,0.0,72,0.00,CLR,,0.09,WeatherDisplay:10.37,2013-01-24 03:59:00,
2013-01-23 21:04:00,28.1,20.2,30.43,South,179,0.0,0.0,72,0.00,CLR,,0.09,WeatherDisplay:10.37,2013-01-24 04:04:00,
2013-01-23 21:09:00,28.0,20.1,30.43,South,179,2.0,2.0,72,0.00,CLR,,0.09,WeatherDisplay:10.37,2013-01-24 04:09:00,
2013-01-23 21:14:00,27.9,20.4,30.43,South,179,1.1,1.1,73,0.00,CLR,,0.09,WeatherDisplay:10.37,2013-01-24 04:14:00,
2013-01-23 21:19:00,27.8,20.3,30.43,South,180,2.3,2.3,73,0.00,CLR,,0.09,WeatherDisplay:10.37,2013-01-24 04:19:00,
2013-01-23 21:24:00,27.7,20.2,30.43,South,186,2.3,2.3,73,0.00,CLR,,0.09,WeatherDisplay:10.37,2013-01-24 04:24:00,
2013-01-23 21:29:00,27.7,20.2,30.43,South,186,0.0,0.0,73,0.00,CLR,,0.09,WeatherDisplay:10.37,2013-01-24 04:29:00,
2013-01-23 21:34:00,27.6,20.1,30.43,South,186,0.0,0.0,73,0.00,CLR,,0.09,WeatherDisplay:10.37,2013-01-24 04:34:00,
2013-01-23 21:39:00,27.5,20.3,30.44,South,186,0.0,0.0,74,0.00,CLR,,0.09,WeatherDisplay:10.37,2013-01-24 04:39:00,
2013-01-23 21:44:00,27.4,20.2,30.44,South,186,0.0,0.0,74,0.00,CLR,,0.09,WeatherDisplay:10.37,2013-01-24 04:44:00,
2013-01-23 21:49:00,27.3,20.1,30.44,South,186,0.0,0.0,74,0.00,CLR,,0.09,WeatherDisplay:10.37,2013-01-24 04:49:00,
2013-01-23 21:54:00,27.2,20.0,30.44,South,186,0.0,0.0,74,0.00,CLR,,0.09,WeatherDisplay:10.37,2013-01-24 04:54:00,
2013-01-23 21:59:00,27.0,19.8,30.43,South,186,0.0,0.0,74,0.00,CLR,,0.09,WeatherDisplay:10.37,2013-01-24 04:59:00,
2013-01-23 22:01:00,27.0,19.8,30.43,South,186,0.0,0.0,74,0.00,CLR,,0.09,WeatherDisplay:10.37,2013-01-24 05:01:00,
2013-01-23 22:03:00,27.0,19.8,30.43,South,186,2.3,2.3,74,0.00,CLR,,0.09,WeatherDisplay:10.37,2013-01-24 05:03:00,
2013-01-23 22:08:00,26.9,20.0,30.43,South,187,0.0,0.0,75,0.00,CLR,,0.09,WeatherDisplay:10.37,2013-01-24 05:08:00,
2013-01-23 22:13:00,26.8,20.2,30.42,South,188,1.1,1.1,76,0.00,CLR,,0.09,WeatherDisplay:10.37,2013-01-24 05:13:00,
2013-01-23 22:18:00,26.7,20.1,30.42,South,188,0.0,0.0,76,0.00,CLR,,0.09,WeatherDisplay:10.37,2013-01-24 05:18:00,
2013-01-23 22:23:00,26.6,19.7,30.43,ESE,119,3.5,3.5,75,0.00,CLR,,0.09,WeatherDisplay:10.37,2013-01-24 05:23:00,
2013-01-23 22:28:00,26.6,19.7,30.42,East,86,0.0,0.0,75,0.00,CLR,,0.09,WeatherDisplay:10.37,2013-01-24 05:28:00,
2013-01-23 22:33:00,26.5,19.6,30.42,North,5,1.1,1.1,75,0.00,CLR,,0.09,WeatherDisplay:10.37,2013-01-24 05:33:00,
2013-01-23 22:38:00,26.4,19.5,30.42,West,281,0.0,0.0,75,0.00,CLR,,0.09,WeatherDisplay:10.37,2013-01-24 05:38:00,
2013-01-23 22:43:00,26.3,19.5,30.42,West,281,0.0,0.0,75,0.00,CLR,,0.09,WeatherDisplay:10.37,2013-01-24 05:43:00,
2013-01-23 22:48:00,26.2,19.7,30.42,West,281,0.0,0.0,76,0.00,CLR,,0.09,WeatherDisplay:10.37,2013-01-24 05:48:00,
2013-01-23 22:53:00,26.2,19.7,30.42,West,281,0.0,0.0,76,0.00,CLR,,0.09,WeatherDisplay:10.37,2013-01-24 05:53:00,
2013-01-23 22:58:00,26.1,19.6,30.42,SW,221,3.5,3.5,76,0.00,CLR,,0.09,WeatherDisplay:10.37,2013-01-24 05:58:00,
2013-01-23 23:03:00,26.0,19.5,30.43,SW,215,3.5,3.5,76,0.00,CLR,,0.09,WeatherDisplay:10.37,2013-01-24 06:03:00,
2013-01-23 23:08:00,26.0,19.5,30.43,SSW,212,0.0,0.0,76,0.00,CLR,,0.09,WeatherDisplay:10.37,2013-01-24 06:08:00,
2013-01-23 23:13:00,26.1,19.6,30.42,SSW,212,0.0,0.0,76,0.00,CLR,,0.09,WeatherDisplay:10.37,2013-01-24 06:13:00,
2013-01-23 23:18:00,26.1,19.6,30.43,SSW,212,0.0,0.0,76,0.00,CLR,,0.09,WeatherDisplay:10.37,2013-01-24 06:18:00,
2013-01-23 23:23:00,26.0,19.5,30.43,SSW,212,0.0,0.0,76,0.00,CLR,,0.09,WeatherDisplay:10.37,2013-01-24 06:23:00,
2013-01-23 23:28:00,25.8,19.3,30.43,SSW,212,0.0,0.0,76,0.00,CLR,,0.09,WeatherDisplay:10.37,2013-01-24 06:28:00,
2013-01-23 23:33:00,25.7,19.5,30.43,SSW,212,0.0,0.0,77,0.00,CLR,,0.09,WeatherDisplay:10.37,2013-01-24 06:33:00,
2013-01-23 23:38:00,25.6,19.4,30.43,SSW,212,1.1,0.0,77,0.00,CLR,,0.09,WeatherDisplay:10.37,2013-01-24 06:38:00,
2013-01-23 23:43:00,25.5,19.3,30.43,SSW,212,1.1,1.1,77,0.00,CLR,,0.09,WeatherDisplay:10.37,2013-01-24 06:43:00,
2013-01-23 23:48:00,25.4,19.5,30.42,SSW,212,0.0,0.0,78,0.00,CLR,,0.09,WeatherDisplay:10.37,2013-01-24 06:48:00,
2013-01-23 23:53:00,25.4,19.5,30.42,SSW,212,0.0,0.0,78,0.00,CLR,,0.09,WeatherDisplay:10.37,2013-01-24 06:53:00,
2013-01-23 23:58:00,25.4,19.5,30.43,SSW,212,0.0,0.0,78,0.00,CLR,,0.09,WeatherDisplay:10.37,2013-01-24 06:58:00,